User: anonymous   Login
Location: Gerlach
(40.6516°N, 119.3568°W)
Time: 00:10:59
(UTC-08:00)
Language:

First-Move - Orbit

View from above orbital plane
View from above orbital plane
View from above satellite
View from above satellite

Ground track
Ground track

The orbit data is extracted from the following two-line orbital elements,

1 39439U 13066Z   24063.87653348  .00028145  00000-0  24353-2 0  9992
2 39439  97.7127  28.5863 0051891 127.6232 232.9716 14.96063498555119
Epoch (UTC): 03 March 2024 21:02:12
Eccentricity: 0.0051891
inclination: 97.7127°
perigee height: 543 km
apogee height: 615 km
right ascension of ascending node: 28.5863°
argument of perigee: 127.6232°
revolutions per day: 14.96063498
mean anomaly at epoch: 232.9716°
orbit number at epoch: 55511

The dashed part of the orbit path shows where the satellite is in the earth's shadow,  

DLR